Tracking 31027 objects as of 19-Jul-2025
HD Live streaming from Space Station
objects crossing your sky now

DMSP 5D-2 F13 DEB

Track DMSP 5D-2 F13 DEB now!
10-day predictions


NORAD ID: 40490
Int'l Code: 1995-015CD
Perigee: 820.7 km
Apogee: 1,052.1 km
Inclination: 98.8 °
Period: 103.6 minutes
Semi major axis: 7307 km
RCS: Unknown
Launch date: March 24, 1995
Source: United States (US)
Launch site: AIR FORCE WESTERN TEST RANGE (AFWTR)

Note: This is SATELLITE DEBRIS
Your satellite tracking list
Your tracking list is empty




NASA's NSSDC Master Catalog

Two Line Element Set (TLE):
1 40490U 95015CD  25195.15205685  .00001040  00000-0  79482-3 0  9999
2 40490  98.7570 345.2689 0158333  21.5705 339.2028 13.89824826521641
Source of the keplerian elements: AFSPC